St. Jones River Dover DE USA current weather conditions

sailwx.info

Wind from 259 at 1 knots gusting 3

Air temperature 22.4° C
Dewpoint 21.5° C

Last reported at 2020-Sep-29 19:00 UTC.
Time now 2020-Sep-29 19:56 UTC

Location: N 39°10' W 075°36'.
View on Google Maps.

See reports from other nearby stations

  
Tides and Currents Weather Stations Pressure Air Temp Water Temp Dewpoint Dewpoint Depression Visibility Wind Speed Wind Dir Waves Ship Positions
date/time (UTC)wind fromknots sea level pressurealtimeterstation pressurevisibilityair tempwater tempwave heightnotes
2020-Sep-29 19:00 259 1 gusting 3 22.4
2020-Sep-29 18:50 310 1 gusting 2 22.4
2020-Sep-29 18:45 105 0 gusting 1 22.4
2020-Sep-29 18:40 147 1 gusting 3 22.3
2020-Sep-29 18:35 179 1 gusting 1 22.3
2020-Sep-29 18:30 223 1 gusting 2 22.2
2020-Sep-29 18:25 181 2 gusting 2 22.2
2020-Sep-29 18:20 197 2 gusting 4 22.1
2020-Sep-29 18:15 196 2 gusting 4 22.1
2020-Sep-29 18:10 197 3 gusting 6 22.1
2020-Sep-29 18:05 194 5 gusting 8 22.2
2020-Sep-29 18:00 186 5 gusting 8 22.4
2020-Sep-29 17:55 191 5 gusting 8 22.4
2020-Sep-29 17:50 194 6 gusting 8 22.4
2020-Sep-29 17:45 183 5 gusting 7 22.3
2020-Sep-29 17:40 192 5 gusting 9 22.1
2020-Sep-29 17:35 192 6 gusting 10 22.1
2020-Sep-29 17:30 174 6 gusting 10 22.6
2020-Sep-29 17:25 168 6 gusting 9 23.0
2020-Sep-29 17:20 169 5 gusting 8 23.3
2020-Sep-29 17:15 170 5 gusting 11 23.8
2020-Sep-29 17:10 171 5 gusting 7 24.1
2020-Sep-29 17:05 174 4 gusting 7 24.4
2020-Sep-29 17:00 173 4 gusting 6 24.5
2020-Sep-29 16:55 167 5 gusting 7 24.5
2020-Sep-29 16:50 185 5 gusting 7 24.5
2020-Sep-29 16:45 187 4 gusting 8 24.6
2020-Sep-29 16:40 183 4 gusting 6 24.7
2020-Sep-29 16:35 177 4 gusting 6 24.8
2020-Sep-29 16:30 194 5 gusting 9 25.1
2020-Sep-29 16:25 203 7 gusting 11 25.3
2020-Sep-29 16:20 182 5 gusting 8 25.5
2020-Sep-29 16:15 172 5 gusting 8 25.4
2020-Sep-29 16:10 174 5 gusting 7 25.2
2020-Sep-29 16:05 172 4 gusting 7 24.9
2020-Sep-29 16:00 183 3 gusting 6 25.0
2020-Sep-29 15:55 180 5 gusting 7 24.7
2020-Sep-29 15:50 184 5 gusting 7 24.7
2020-Sep-29 15:45 191 5 gusting 8 24.5
2020-Sep-29 15:40 203 4 gusting 6 24.3
2020-Sep-29 15:35 205 3 gusting 5 24.1
2020-Sep-29 15:30 190 4 gusting 7 23.9
2020-Sep-29 15:25 201 4 gusting 7 24.0
2020-Sep-29 15:20 215 6 gusting 9 24.2
2020-Sep-29 15:15 212 5 gusting 9 24.4
2020-Sep-29 15:10 186 4 gusting 7 24.1
2020-Sep-29 15:05 185 4 gusting 7 24.1
2020-Sep-29 15:00 194 5 gusting 8 24.0
2020-Sep-29 14:55 195 3 gusting 6 23.7
2020-Sep-29 14:50 194 5 gusting 7 23.6
2020-Sep-29 14:45 198 6 gusting 9 23.4
2020-Sep-29 14:40 192 6 gusting 9 23.2
2020-Sep-29 14:35 199 4 gusting 8 23.4
2020-Sep-29 14:30 196 4 gusting 6 23.2
2020-Sep-29 14:25 184 5 gusting 7 22.6
2020-Sep-29 14:20 196 5 gusting 8 22.5
2020-Sep-29 14:15 193 4 gusting 7 22.3
2020-Sep-29 14:10 188 4 gusting 7 22.3
2020-Sep-29 14:05 180 5 gusting 7 22.2
2020-Sep-29 14:00 186 4 gusting 6 22.1
2020-Sep-29 13:55 193 4 gusting 6 22.0
2020-Sep-29 13:50 190 3 gusting 6 21.9
2020-Sep-29 13:45 195 3 gusting 6 21.7
2020-Sep-29 13:40 199 4 gusting 6 21.7
2020-Sep-29 13:35 188 3 gusting 4 21.7
2020-Sep-29 13:30 181 4 gusting 5 21.6
2020-Sep-29 13:25 185 3 gusting 6 21.6
2020-Sep-29 13:20 179 3 gusting 6 21.5
2020-Sep-29 13:15 192 3 gusting 4 21.5
2020-Sep-29 13:10 185 2 gusting 4 21.4
2020-Sep-29 13:05 180 2 gusting 5 21.4
2020-Sep-29 13:00 171 3 gusting 5 21.2
2020-Sep-29 12:55 185 3 gusting 5 21.1
2020-Sep-29 12:50 188 4 gusting 7 21.1
2020-Sep-29 12:45 190 4 gusting 6 21.2
2020-Sep-29 12:40 192 5 gusting 9 21.3
2020-Sep-29 12:35 198 4 gusting 7 21.3
2020-Sep-29 12:30 186 5 gusting 8 21.3
2020-Sep-29 12:25 196 5 gusting 9 21.3
2020-Sep-29 12:20 186 4 gusting 7 21.4
2020-Sep-29 12:15 187 4 gusting 6 21.4
2020-Sep-29 12:10 191 4 gusting 7 21.4
2020-Sep-29 12:05 179 3 gusting 6 21.3
2020-Sep-29 12:00 182 4 gusting 8 21.3
2020-Sep-29 11:55 168 4 gusting 6 21.3
2020-Sep-29 11:50 173 4 gusting 7 21.2
2020-Sep-29 11:45 176 4 gusting 8 21.2
2020-Sep-29 11:40 169 4 gusting 7 21.2
2020-Sep-29 11:35 162 4 gusting 7 21.1
2020-Sep-29 11:30 161 4 gusting 8 21.0
2020-Sep-29 11:25 168 4 gusting 8 21.0
2020-Sep-29 11:20 170 4 gusting 7 21.1
2020-Sep-29 11:15 175 4 gusting 9 21.0
2020-Sep-29 11:10 176 4 gusting 7 20.9
2020-Sep-29 11:05 175 5 gusting 9 20.8
2020-Sep-29 11:00 170 4 gusting 7 20.8
2020-Sep-29 10:55 167 3 gusting 4 20.8
2020-Sep-29 10:50 169 3 gusting 4 20.7
2020-Sep-29 10:45 156 3 gusting 5 20.7
2020-Sep-29 10:40 166 2 gusting 3 20.6
2020-Sep-29 10:35 163 3 gusting 5 20.6
2020-Sep-29 10:30 151 3 gusting 4 20.6
2020-Sep-29 10:25 165 2 gusting 4 20.5
2020-Sep-29 10:20 172 2 gusting 3 20.6
2020-Sep-29 10:15 142 2 gusting 3 20.6
2020-Sep-29 10:10 150 2 gusting 3 20.5
2020-Sep-29 10:05 149 1 gusting 2 20.6
2020-Sep-29 10:00 161 1 gusting 2 20.6
2020-Sep-29 09:55 159 2 gusting 3 20.6
2020-Sep-29 09:50 155 2 gusting 3 20.6
2020-Sep-29 09:45 155 1 gusting 2 20.6
2020-Sep-29 09:40 158 2 gusting 3 20.7
2020-Sep-29 09:35 159 2 gusting 4 20.6
2020-Sep-29 09:30 164 3 gusting 5 20.6
2020-Sep-29 09:25 168 2 gusting 3 20.6
2020-Sep-29 09:20 168 2 gusting 4 20.5
2020-Sep-29 09:15 176 2 gusting 5 20.5
2020-Sep-29 09:10 164 2 gusting 5 20.4
2020-Sep-29 09:05 171 3 gusting 4 20.4
2020-Sep-29 09:00 174 2 gusting 3 20.4
2020-Sep-29 08:55 176 2 gusting 4 20.5
2020-Sep-29 08:50 179 2 gusting 4 20.6
2020-Sep-29 08:45 177 3 gusting 4 20.6
2020-Sep-29 08:40 177 2 gusting 4 20.6
2020-Sep-29 08:35 175 3 gusting 5 20.6
2020-Sep-29 08:30 178 3 gusting 5 20.6
2020-Sep-29 08:25 186 3 gusting 6 20.6
2020-Sep-29 08:20 183 3 gusting 6 20.5
2020-Sep-29 08:15 183 3 gusting 5 20.5
2020-Sep-29 08:10 197 3 gusting 5 20.5
2020-Sep-29 08:05 190 4 gusting 7 20.5
2020-Sep-29 08:00 191 4 gusting 6 20.5
2020-Sep-29 07:55 187 3 gusting 6 20.5
2020-Sep-29 07:50 194 4 gusting 7 20.5
2020-Sep-29 07:45 194 5 gusting 7 20.5
2020-Sep-29 07:40 192 5 gusting 8 20.4
2020-Sep-29 07:35 195 5 gusting 9 20.3
2020-Sep-29 07:30 198 4 gusting 8 20.2
2020-Sep-29 07:25 192 4 gusting 6 20.1
2020-Sep-29 07:20 189 4 gusting 7 20.1
2020-Sep-29 07:15 190 4 gusting 6 20.0
2020-Sep-29 07:10 186 3 gusting 5 20.0
2020-Sep-29 07:05 176 3 gusting 5 19.9
2020-Sep-29 07:00 173 3 gusting 4 20.0
2020-Sep-29 06:55 167 4 gusting 7 20.0
2020-Sep-29 06:50 173 4 gusting 6 19.9
2020-Sep-29 06:45 172 3 gusting 6 19.9
2020-Sep-29 06:40 177 4 gusting 6 19.9
2020-Sep-29 06:35 176 4 gusting 6 19.9
2020-Sep-29 06:30 185 4 gusting 6 19.9
2020-Sep-29 06:25 180 4 gusting 5 20.0
2020-Sep-29 06:20 185 3 gusting 6 19.9
2020-Sep-29 06:15 181 4 gusting 8 20.0
2020-Sep-29 06:10 184 4 gusting 7 20.0
2020-Sep-29 06:05 182 4 gusting 7 20.0
2020-Sep-29 06:00 182 4 gusting 6 20.0
2020-Sep-29 05:55 177 4 gusting 7 20.0
2020-Sep-29 05:50 183 4 gusting 6 20.0
2020-Sep-29 05:45 185 5 gusting 8 20.0
2020-Sep-29 05:40 185 5 gusting 8 19.9
2020-Sep-29 05:35 188 4 gusting 8 19.8
2020-Sep-29 05:30 181 4 gusting 6 19.8
2020-Sep-29 05:25 182 4 gusting 7 19.8
2020-Sep-29 05:20 187 3 gusting 7 19.7
2020-Sep-29 05:15 182 4 gusting 6 19.7
2020-Sep-29 05:10 190 5 gusting 8 19.7
2020-Sep-29 05:05 189 4 gusting 6 19.7
2020-Sep-29 05:00 184 4 gusting 6 19.7
2020-Sep-29 04:55 181 3 gusting 7 19.7
2020-Sep-29 04:50 191 4 gusting 7 19.6
2020-Sep-29 04:45 195 4 gusting 6 19.7
2020-Sep-29 04:40 195 4 gusting 7 19.8
2020-Sep-29 04:35 186 3 gusting 5 19.8
2020-Sep-29 04:30 184 3 gusting 5 19.9
2020-Sep-29 04:25 186 4 gusting 6 19.9
2020-Sep-29 04:20 188 4 gusting 6 19.9
2020-Sep-29 04:15 184 4 gusting 7 20.0
2020-Sep-29 04:10 183 4 gusting 7 19.9
2020-Sep-29 04:05 185 5 gusting 8 19.9
2020-Sep-29 04:00 177 3 gusting 5 19.9
2020-Sep-29 03:55 180 4 gusting 6 19.9
2020-Sep-29 03:50 175 3 gusting 4 19.9
2020-Sep-29 03:45 182 3 gusting 5 19.9
2020-Sep-29 03:40 188 2 gusting 4 19.9
2020-Sep-29 03:35 188 2 gusting 5 19.9
2020-Sep-29 03:30 184 3 gusting 5 20.0
2020-Sep-29 03:25 190 3 gusting 5 20.0
2020-Sep-29 03:20 187 3 gusting 5 20.0
2020-Sep-29 03:15 187 3 gusting 6 20.2
2020-Sep-29 03:10 190 3 gusting 7 20.1
2020-Sep-29 03:05 187 3 gusting 6 20.2
2020-Sep-29 03:00 180 3 gusting 4 20.2
2020-Sep-29 02:55 179 4 gusting 5 20.3
2020-Sep-29 02:50 181 3 gusting 5 20.2
2020-Sep-29 02:45 182 3 gusting 5 20.3
2020-Sep-29 02:40 174 3 gusting 4 20.4
2020-Sep-29 02:35 177 2 gusting 5 20.5
2020-Sep-29 02:30 182 3 gusting 5 20.6
2020-Sep-29 02:25 176 4 gusting 6 20.7
2020-Sep-29 02:20 181 2 gusting 4 20.7
2020-Sep-29 02:15 177 3 gusting 6 20.9
2020-Sep-29 02:10 177 4 gusting 7 21.0
2020-Sep-29 02:05 177 3 gusting 6 20.9
2020-Sep-29 02:00 173 3 gusting 6 21.0
2020-Sep-29 01:55 178 4 gusting 6 21.0
2020-Sep-29 01:50 173 4 gusting 7 21.1
2020-Sep-29 01:45 180 5 gusting 7 21.2
2020-Sep-29 01:40 165 4 gusting 7 21.2
2020-Sep-29 01:35 174 4 gusting 9 21.2
2020-Sep-29 01:30 167 4 gusting 7 21.3
2020-Sep-29 01:25 171 3 gusting 6 21.4
2020-Sep-29 01:20 169 4 gusting 6 21.5
2020-Sep-29 01:15 167 3 gusting 7 21.5
2020-Sep-29 01:10 159 3 gusting 6 21.5
2020-Sep-29 01:05 163 3 gusting 6 21.6
2020-Sep-29 01:00 165 3 gusting 6 21.8
2020-Sep-29 00:55 158 3 gusting 5 21.9
2020-Sep-29 00:50 164 3 gusting 5 22.0
2020-Sep-29 00:45 175 4 gusting 5 22.1
2020-Sep-29 00:40 175 3 gusting 6 22.2
2020-Sep-29 00:35 175 3 gusting 6 22.3
2020-Sep-29 00:30 174 4 gusting 5 22.4
2020-Sep-29 00:25 169 4 gusting 7 22.5
2020-Sep-29 00:20 160 4 gusting 7 22.7
2020-Sep-29 00:15 159 5 gusting 8 22.7
2020-Sep-29 00:10 165 5 gusting 9 22.8
2020-Sep-29 00:05 159 4 gusting 7 22.8
2020-Sep-29 00:00 171 4 gusting 6 22.9
2020-Sep-28 23:55 161 3 gusting 5 22.9
2020-Sep-28 23:50 160 3 gusting 5 23.0
2020-Sep-28 23:45 156 3 gusting 5 23.1
2020-Sep-28 23:40 155 3 gusting 5 23.3
2020-Sep-28 23:35 153 2 gusting 4 23.2
2020-Sep-28 23:30 163 2 gusting 3 23.2
2020-Sep-28 23:25 165 2 gusting 3 23.5
2020-Sep-28 23:20 152 3 gusting 4 23.7
2020-Sep-28 23:15 147 2 gusting 3 24.0
2020-Sep-28 23:10 171 1 gusting 2 23.9
2020-Sep-28 23:05 192 2 gusting 3 23.8
2020-Sep-28 23:00 197 2 gusting 3 24.0
2020-Sep-28 22:55 190 2 gusting 3 24.2
2020-Sep-28 22:50 198 3 gusting 4 24.3
2020-Sep-28 22:45 197 2 gusting 5 24.6
2020-Sep-28 22:40 190 4 gusting 6 24.9
2020-Sep-28 22:35 192 3 gusting 6 25.2
2020-Sep-28 22:30 191 4 gusting 7 25.5
2020-Sep-28 22:25 187 3 gusting 5 25.6
2020-Sep-28 22:20 191 3 gusting 5 25.8
2020-Sep-28 22:15 180 3 gusting 6 26.1
2020-Sep-28 22:10 184 3 gusting 4 26.2
2020-Sep-28 22:05 185 3 gusting 5 26.4
2020-Sep-28 22:00 183 3 gusting 5 26.6
2020-Sep-28 21:55 191 4 gusting 5 26.8
2020-Sep-28 21:50 200 4 gusting 6 27.0
2020-Sep-28 21:45 199 4 gusting 6 27.1
2020-Sep-28 21:40 195 4 gusting 7 27.2
2020-Sep-28 21:35 189 4 gusting 7 27.3
2020-Sep-28 21:30 187 6 gusting 8 27.4
2020-Sep-28 21:25 190 5 gusting 8 27.6
2020-Sep-28 21:20 193 4 gusting 8 27.6
2020-Sep-28 21:15 187 4 gusting 6 27.7
2020-Sep-28 21:10 190 4 gusting 7 27.8
2020-Sep-28 21:05 191 5 gusting 8 27.7
2020-Sep-28 21:00 198 6 gusting 10 27.7
2020-Sep-28 20:55 200 6 gusting 12 27.8
2020-Sep-28 20:50 196 6 gusting 9 27.8
2020-Sep-28 20:45 194 5 gusting 8 27.8
2020-Sep-28 20:40 186 6 gusting 9 27.7
2020-Sep-28 20:35 185 6 gusting 10 27.8
2020-Sep-28 20:30 185 6 gusting 10 27.8
2020-Sep-28 20:25 190 8 gusting 12 27.8
2020-Sep-28 20:20 174 7 gusting 12 27.7
2020-Sep-28 20:15 155 6 gusting 10 27.8
2020-Sep-28 20:10 176 6 gusting 10 28.1
2020-Sep-28 20:05 181 6 gusting 10 28.2
2020-Sep-28 20:00 166 6 gusting 10 27.8
2020-Sep-28 19:55 169 4 gusting 8 28.2
2020-Sep-28 19:50 194 5 gusting 9 28.3
2020-Sep-28 19:45 186 5 gusting 8 27.6
2020-Sep-28 19:40 193 6 gusting 10 27.9
2020-Sep-28 19:35 203 5 gusting 8 27.9
2020-Sep-28 19:30 187 5 gusting 9 27.8
2020-Sep-28 19:25 185 5 gusting 8 27.8
2020-Sep-28 19:20 185 6 gusting 9 27.7
2020-Sep-28 19:15 184 6 gusting 9 27.6
2020-Sep-28 19:10 168 5 gusting 8 27.6
2020-Sep-28 19:05 182 6 gusting 10 27.7
2020-Sep-28 19:00 184 5 gusting 8 27.9
2020-Sep-28 18:55 186 5 gusting 7 28.2
2020-Sep-28 18:50 201 5 gusting 9 28.3
2020-Sep-28 18:45 187 6 gusting 10 28.0
2020-Sep-28 18:40 165 6 gusting 9 28.1
2020-Sep-28 18:35 211 6 gusting 9 28.5
2020-Sep-28 18:30 186 5 gusting 12 28.4
2020-Sep-28 18:25 203 5 gusting 8 28.5
2020-Sep-28 18:20 219 7 gusting 11 28.4
2020-Sep-28 18:15 203 5 gusting 7 28.3
2020-Sep-28 18:10 194 5 gusting 8 28.1
2020-Sep-28 18:05 164 5 gusting 8 28.0
2020-Sep-28 18:00 180 3 gusting 6 28.1
2020-Sep-28 17:55 163 4 gusting 7 27.6
2020-Sep-28 17:50 184 3 gusting 6 27.7
2020-Sep-28 17:45 184 6 gusting 9 27.6
2020-Sep-28 17:40 214 7 gusting 9 27.8
2020-Sep-28 17:35 218 5 gusting 9 27.7
2020-Sep-28 17:30 189 7 gusting 11 27.6
2020-Sep-28 17:25 197 6 gusting 9 27.8
2020-Sep-28 17:20 233 7 gusting 12 27.7
2020-Sep-28 17:15 207 6 gusting 9 27.8
2020-Sep-28 17:10 208 7 gusting 12 27.5
2020-Sep-28 17:05 203 6 gusting 10 27.7
2020-Sep-28 17:00 227 6 gusting 9 27.5
2020-Sep-28 16:55 234 6 gusting 12 27.5
2020-Sep-28 16:50 219 5 gusting 10 27.7
2020-Sep-28 16:45 215 6 gusting 11 27.4
2020-Sep-28 16:40 226 7 gusting 13 27.4
2020-Sep-28 16:35 219 7 gusting 13 27.3
2020-Sep-28 16:30 208 7 gusting 11 27.1
2020-Sep-28 16:25 213 7 gusting 10 26.9
2020-Sep-28 16:20 207 6 gusting 10 26.8
2020-Sep-28 16:15 188 6 gusting 9 26.8
2020-Sep-28 16:10 206 6 gusting 11 26.9
2020-Sep-28 16:05 224 6 gusting 8 26.6
2020-Sep-28 16:00 216 6 gusting 11 26.3
2020-Sep-28 15:55 212 7 gusting 12 26.1
2020-Sep-28 15:50 203 6 gusting 9 26.0
2020-Sep-28 15:45 192 6 gusting 9 25.8
2020-Sep-28 15:40 184 6 gusting 9 25.7
2020-Sep-28 15:35 198 5 gusting 9 25.5
2020-Sep-28 15:30 183 7 gusting 11 25.3
2020-Sep-28 15:25 197 6 gusting 9 25.4
2020-Sep-28 15:20 209 6 gusting 9 25.2
2020-Sep-28 15:15 209 6 gusting 9 24.9
2020-Sep-28 15:10 193 5 gusting 8 24.8
2020-Sep-28 15:05 191 6 gusting 10 24.4
2020-Sep-28 15:00 182 5 gusting 8 24.5
2020-Sep-28 14:55 204 4 gusting 8 24.4
2020-Sep-28 14:50 196 5 gusting 8 24.1
2020-Sep-28 14:45 204 5 gusting 9 23.8
2020-Sep-28 14:40 194 6 gusting 8 23.4
2020-Sep-28 14:35 192 5 gusting 9 23.3
2020-Sep-28 14:30 220 5 gusting 8 22.9
2020-Sep-28 14:25 221 5 gusting 9 22.6
2020-Sep-28 14:20 205 4 gusting 7 22.4
2020-Sep-28 14:15 206 5 gusting 8 22.3
2020-Sep-28 14:10 195 5 gusting 8 22.2
2020-Sep-28 14:05 203 5 gusting 8 22.0
2020-Sep-28 14:00 199 7 gusting 12 22.0
2020-Sep-28 13:55 202 5 gusting 8 21.9
2020-Sep-28 13:50 204 5 gusting 8 22.2
2020-Sep-28 13:45 197 5 gusting 7 22.0
2020-Sep-28 13:40 192 4 gusting 7 21.7
2020-Sep-28 13:35 189 4 gusting 7 21.2
2020-Sep-28 13:30 183 5 gusting 8 20.6
2020-Sep-28 13:25 189 3 gusting 6 20.6
2020-Sep-28 13:20 185 4 gusting 7 20.6
2020-Sep-28 13:15 190 5 gusting 9 20.6
2020-Sep-28 13:10 194 5 gusting 9 20.7
2020-Sep-28 13:05 194 5 gusting 7 20.7
2020-Sep-28 13:00 191 3 gusting 6 20.8
2020-Sep-28 12:55 192 3 gusting 5 20.5
2020-Sep-28 12:50 188 3 gusting 5 20.2
2020-Sep-28 12:45 191 3 gusting 5 20.1
2020-Sep-28 12:40 191 4 gusting 6 20.1
2020-Sep-28 12:35 194 3 gusting 6 20.1
2020-Sep-28 12:30 187 3 gusting 5 20.0
2020-Sep-28 12:25 185 3 gusting 5 20.0
2020-Sep-28 12:20 189 4 gusting 6 19.9
2020-Sep-28 12:15 190 3 gusting 6 19.9
2020-Sep-28 12:10 174 2 gusting 4 19.8
2020-Sep-28 12:05 177 3 gusting 5 19.8
2020-Sep-28 12:00 160 3 gusting 5 19.8
2020-Sep-28 11:55 158 3 gusting 4 19.8
2020-Sep-28 11:50 167 3 gusting 4 19.8
2020-Sep-28 11:45 155 2 gusting 5 19.8
2020-Sep-28 11:40 170 2 gusting 4 19.7
2020-Sep-28 11:35 172 3 gusting 5 19.7
2020-Sep-28 11:30 173 2 gusting 4 19.7
2020-Sep-28 11:25 179 3 gusting 4 19.7
2020-Sep-28 11:20 172 3 gusting 5 19.7
2020-Sep-28 11:15 168 3 gusting 4 19.7
2020-Sep-28 11:10 162 3 gusting 4 19.8
2020-Sep-28 11:05 151 2 gusting 5 19.8
2020-Sep-28 11:00 157 2 gusting 4 19.8
2020-Sep-28 10:55 160 3 gusting 5 19.9
2020-Sep-28 10:50 151 3 gusting 5 19.9
2020-Sep-28 10:45 157 2 gusting 4 19.9
2020-Sep-28 10:40 167 3 gusting 5 19.9
2020-Sep-28 10:35 165 3 gusting 5 19.9
2020-Sep-28 10:30 165 2 gusting 4 19.9
2020-Sep-28 10:25 167 3 gusting 6 19.9
2020-Sep-28 10:20 165 3 gusting 5 19.9
2020-Sep-28 10:15 156 3 gusting 6 19.9
2020-Sep-28 10:10 153 3 gusting 5 19.9
2020-Sep-28 10:05 133 3 gusting 4 20.0
2020-Sep-28 10:00 156 3 gusting 6 19.9
2020-Sep-28 09:55 156 2 gusting 3 19.9
2020-Sep-28 09:50 151 2 gusting 4 19.9
2020-Sep-28 09:45 156 2 gusting 3 19.9
2020-Sep-28 09:40 158 2 gusting 2 19.8
2020-Sep-28 09:35 166 2 gusting 3 19.9
2020-Sep-28 09:30 177 2 gusting 2 19.9
2020-Sep-28 09:25 159 1 gusting 2 20.0
2020-Sep-28 09:20 166 1 gusting 2 20.0
2020-Sep-28 09:15 175 2 gusting 2 20.1
2020-Sep-28 09:10 171 2 gusting 4 20.1
2020-Sep-28 09:05 177 3 gusting 5 20.1
2020-Sep-28 09:00 172 2 gusting 4 20.1
2020-Sep-28 08:55 190 3 gusting 5 20.1
2020-Sep-28 08:50 194 2 gusting 3 20.1
2020-Sep-28 08:45 198 2 gusting 4 20.1
2020-Sep-28 08:40 189 3 gusting 4 20.1
2020-Sep-28 08:35 187 3 gusting 6 20.1
2020-Sep-28 08:30 177 2 gusting 4 20.1
2020-Sep-28 08:25 178 2 gusting 3 20.0
2020-Sep-28 08:20 168 2 gusting 3 20.0
2020-Sep-28 08:15 168 2 gusting 3 20.0
2020-Sep-28 08:10 171 2 gusting 3 20.1
2020-Sep-28 08:05 179 1 gusting 1 20.2
2020-Sep-28 08:00 190 1 gusting 3 20.2
2020-Sep-28 07:55 187 1 gusting 3 20.2
2020-Sep-28 07:50 195 1 gusting 2 20.3
2020-Sep-28 07:45 204 2 gusting 4 20.4
2020-Sep-28 07:40 203 3 gusting 4 20.5
2020-Sep-28 07:35 203 2 gusting 4 20.5
2020-Sep-28 07:30 200 2 gusting 4 20.7
2020-Sep-28 07:25 190 3 gusting 4 20.7
2020-Sep-28 07:20 191 3 gusting 4 20.8
2020-Sep-28 07:15 210 3 gusting 5 20.8
2020-Sep-28 07:10 200 3 gusting 6 20.9
2020-Sep-28 07:05 206 4 gusting 7 20.9
2020-Sep-28 07:00 203 4 gusting 8 20.8
2020-Sep-28 06:55 202 3 gusting 6 20.8
2020-Sep-28 06:50 203 3 gusting 5 20.8
2020-Sep-28 06:45 202 2 gusting 4 20.8
2020-Sep-28 06:40 206 3 gusting 5 20.8
2020-Sep-28 06:35 203 3 gusting 4 20.8
2020-Sep-28 06:30 195 3 gusting 4 20.8
2020-Sep-28 06:25 194 3 gusting 5 20.8
2020-Sep-28 06:20 203 2 gusting 4 20.8
2020-Sep-28 06:15 205 2 gusting 4 20.8
2020-Sep-28 06:10 206 3 gusting 5 20.8
2020-Sep-28 06:05 201 4 gusting 6 20.9
2020-Sep-28 06:00 201 5 gusting 8 20.9
2020-Sep-28 05:55 190 4 gusting 6 20.9
2020-Sep-28 05:50 188 4 gusting 6 20.9
2020-Sep-28 05:45 189 3 gusting 6 21.0
2020-Sep-28 05:40 175 4 gusting 5 21.0
2020-Sep-28 05:35 176 3 gusting 5 21.0
2020-Sep-28 05:30 186 3 gusting 5 21.1
2020-Sep-28 05:25 197 3 gusting 5 21.1
2020-Sep-28 05:20 202 3 gusting 4 21.1
2020-Sep-28 05:15 216 2 gusting 4 21.1
2020-Sep-28 05:10 223 2 gusting 4 21.0
2020-Sep-28 05:05 215 2 gusting 4 21.1
2020-Sep-28 05:00 205 3 gusting 4 21.1
2020-Sep-28 04:55 194 2 gusting 3 21.2
2020-Sep-28 04:50 206 3 gusting 4 21.2
2020-Sep-28 04:45 205 3 gusting 6 21.2
2020-Sep-28 04:40 195 2 gusting 5 21.2
2020-Sep-28 04:35 196 2 gusting 3 21.2
2020-Sep-28 04:30 196 2 gusting 4 21.2
2020-Sep-28 04:25 192 1 gusting 2 21.2
2020-Sep-28 04:20 190 1 gusting 2 21.2
2020-Sep-28 04:15 187 1 gusting 2 21.3
2020-Sep-28 04:10 180 1 gusting 2 21.3
2020-Sep-28 04:05 182 1 gusting 2 21.3
2020-Sep-28 04:00 186 2 gusting 3 21.3
2020-Sep-28 03:55 189 2 gusting 3 21.4
2020-Sep-28 03:50 193 2 gusting 3 21.4
2020-Sep-28 03:45 203 3 gusting 6 21.4
2020-Sep-28 03:40 210 3 gusting 5 21.4
2020-Sep-28 03:35 214 2 gusting 4 21.3
2020-Sep-28 03:30 173 3 gusting 4 21.4
2020-Sep-28 03:25 168 3 gusting 5 21.4
2020-Sep-28 03:20 182 2 gusting 3 21.4
2020-Sep-28 03:15 168 3 gusting 4 21.4
2020-Sep-28 03:10 165 2 gusting 4 21.4
2020-Sep-28 03:05 171 2 gusting 4 21.5
2020-Sep-28 03:00 156 3 gusting 5 21.4
2020-Sep-28 02:55 169 2 gusting 4 21.5
2020-Sep-28 02:50 172 2 gusting 3 21.5
2020-Sep-28 02:45 168 2 gusting 3 21.5
2020-Sep-28 02:40 164 2 gusting 4 21.5
2020-Sep-28 02:35 166 2 gusting 3 21.5
2020-Sep-28 02:30 162 2 gusting 3 21.5
2020-Sep-28 02:25 157 2 gusting 4 21.5
2020-Sep-28 02:20 164 2 gusting 4 21.5
2020-Sep-28 02:15 174 3 gusting 4 21.5
2020-Sep-28 02:10 171 2 gusting 4 21.6
2020-Sep-28 02:05 164 2 gusting 4 21.5
2020-Sep-28 02:00 167 2 gusting 4 21.5
2020-Sep-28 01:55 166 2 gusting 3 21.5
2020-Sep-28 01:50 172 3 gusting 4 21.5
2020-Sep-28 01:45 166 2 gusting 3 21.6
2020-Sep-28 01:40 160 2 gusting 3 21.6
2020-Sep-28 01:35 153 3 gusting 5 21.6
2020-Sep-28 01:30 156 2 gusting 4 21.6
2020-Sep-28 01:25 147 3 gusting 4 21.6
2020-Sep-28 01:20 166 2 gusting 3 21.6
2020-Sep-28 01:15 153 2 gusting 4 21.6
2020-Sep-28 01:10 142 3 gusting 4 21.6
2020-Sep-28 01:05 152 2 gusting 3 21.7
2020-Sep-28 01:00 147 2 gusting 4 21.6
2020-Sep-28 00:55 178 1 gusting 2 21.6
2020-Sep-28 00:50 184 1 gusting 2 21.6
2020-Sep-28 00:45 162 2 gusting 3 21.7
2020-Sep-28 00:40 155 1 gusting 2 21.7
2020-Sep-28 00:35 163 1 gusting 2 21.8
2020-Sep-28 00:30 168 2 gusting 3 21.9
2020-Sep-28 00:25 147 1 gusting 3 21.9
2020-Sep-28 00:20 137 2 gusting 3 21.9
2020-Sep-28 00:15 113 1 gusting 2 22.0
2020-Sep-28 00:10 103 1 gusting 2 22.1
2020-Sep-28 00:05 154 1 gusting 2 22.0
2020-Sep-28 00:00 183 1 gusting 2 21.8
2020-Sep-27 23:55 205 1 gusting 4 21.6
2020-Sep-27 23:50 212 0 gusting 1 21.6
2020-Sep-27 23:45 214 1 gusting 2 21.7
2020-Sep-27 23:40 189 1 gusting 2 22.0
2020-Sep-27 23:35 22.1
2020-Sep-27 23:30 073 0 gusting 0 22.1
2020-Sep-27 23:25 181 0 gusting 0 22.0
2020-Sep-27 23:20 196 1 gusting 1 22.0
2020-Sep-27 23:15 236 0 gusting 1 22.3
2020-Sep-27 23:10 044 0 gusting 0 22.6
2020-Sep-27 23:05 116 1 gusting 1 22.7
2020-Sep-27 23:00 108 1 gusting 2 23.1
2020-Sep-27 22:55 100 1 gusting 2 23.1
2020-Sep-27 22:50 099 1 gusting 2 23.2
2020-Sep-27 22:45 090 1 gusting 2 23.3
2020-Sep-27 22:40 076 0 gusting 1 23.5
2020-Sep-27 22:35 095 0 gusting 1 23.6
2020-Sep-27 22:30 314 0 gusting 0 23.6
2020-Sep-27 22:25 314 0 gusting 1 23.7
2020-Sep-27 22:20 297 1 gusting 2 23.7
2020-Sep-27 22:15 286 1 gusting 1 23.7
2020-Sep-27 22:10 280 2 gusting 2 23.8
2020-Sep-27 22:05 285 2 gusting 3 23.9
2020-Sep-27 22:00 273 1 gusting 3 24.2
2020-Sep-27 21:55 242 0 gusting 1 24.4
2020-Sep-27 21:50 043 0 gusting 2 24.4
2020-Sep-27 21:45 050 0 gusting 1 24.5
2020-Sep-27 21:40 069 0 gusting 1 24.7
2020-Sep-27 21:35 109 0 gusting 1 24.7
2020-Sep-27 21:30 127 0 gusting 2 24.8
2020-Sep-27 21:25 116 0 gusting 1 24.9
2020-Sep-27 21:20 074 1 gusting 1 24.9
2020-Sep-27 21:15 086 1 gusting 3 25.0
2020-Sep-27 21:10 111 0 gusting 1 25.0
2020-Sep-27 21:05 072 1 gusting 1 24.9
2020-Sep-27 21:00 100 1 gusting 3 24.8
2020-Sep-27 20:55 136 2 gusting 4 24.8
2020-Sep-27 20:50 114 2 gusting 5 24.7
2020-Sep-27 20:45 113 2 gusting 4 24.8
2020-Sep-27 20:40 077 2 gusting 4 24.8
2020-Sep-27 20:35 092 2 gusting 4 25.0
2020-Sep-27 20:30 111 2 gusting 5 25.1
2020-Sep-27 20:25 091 1 gusting 2 25.2
2020-Sep-27 20:20 102 1 gusting 2 25.1
2020-Sep-27 20:15 111 1 gusting 4 25.0
2020-Sep-27 20:10 105 1 gusting 3 25.0
2020-Sep-27 20:05 066 1 gusting 5 25.0
2020-Sep-27 20:00 052 2 gusting 4 24.9
2020-Sep-27 19:55 064 2 gusting 3 25.0
2020-Sep-27 19:50 060 1 gusting 2 24.9
2020-Sep-27 19:45 067 1 gusting 2 24.9
2020-Sep-27 19:40 064 1 gusting 4 24.9
2020-Sep-27 19:35 102 2 gusting 3 24.9
2020-Sep-27 19:30 078 1 gusting 3 24.9
2020-Sep-27 19:25 090 2 gusting 3 24.9
2020-Sep-27 19:20 037 2 gusting 4 24.9
2020-Sep-27 19:15 037 1 gusting 3 25.0
2020-Sep-27 19:10 124 1 gusting 2 24.8
2020-Sep-27 19:05 065 1 gusting 3 24.6
2020-Sep-27 19:00 049 2 gusting 4 24.7